User: anonymous   Login
Location: Unspecified
(0.0000°N, 0.0000°E)
Time: 04:31:43
(UTC+00:00)
Language:

TACSAT 4 - Orbit

View from above orbital plane
View from above orbital plane
View from above satellite
View from above satellite

Ground track
Ground track

The orbit data is extracted from the following two-line orbital elements,

1 37818U 11052A   18343.34492699 +.00000473 +00000-0 +86008-3 0  9990
2 37818 063.1806 132.8356 4580987 218.4126 102.6960 06.02637986158405
Epoch (UTC): 09 December 2018 08:16:41
Eccentricity: 0.4580987
inclination: 63.1806°
perigee height: 534 km
apogee height: 12220 km
right ascension of ascending node: 132.8356°
argument of perigee: 218.4126°
revolutions per day: 6.02637986
mean anomaly at epoch: 102.6960°
orbit number at epoch: 15840

The dashed part of the orbit path shows where the satellite is in the earth's shadow,  

DLR